Tracking 19293 objects as of 21-Nov-2018
HD Live streaming from Space Station
objects crossing your sky now

OV1-21

Track OV1-21 now!
10-day predictions
OV1-21 is classified as:


NORAD ID: 5397
Int'l Code: 1971-067B
Perigee: 780.3 km
Apogee: 901.9 km
Inclination: 87.6 °
Period: 101.6 minutes
Semi major axis: 7212 km
RCS: 2.316 m2 (large)
Launch date: August 7, 1971
Source: United States (US)
Launch site: AIR FORCE WESTERN TEST RANGE (AFWTR)
aabbcc
Your satellite tracking list
Your tracking list is empty




NASA's NSSDC Master Catalog

Two Line Element Set (TLE):
1  5397U 71067B   18324.80837849  .00000032  00000-0  65558-5 0  9999
2  5397  87.6274  93.7295 0084296  63.5887 297.3921 14.17471429442857
Source of the keplerian elements: AFSPC